Independence, KS

6:08 AM CST on November 25, 2017 (GMT -0600)
Independence Municipal

Weather History for KIDP - May, 2013

Change the Weather History Date:

Friday, May 17, 2013

  Actual Average (KCFV) Record (KCFV)
Temperature  
Mean Temperature 68 °F -  
Max Temperature 78 °F 75 °F 89 °F (1997)
Min Temperature 57 °F 54 °F 39 °F (2011)
Cooling Degree Days 2    
Growing Degree Days 18 (Base 50)    
Moisture  
Dew Point 61 °F    
Average Humidity 83    
Maximum Humidity 100    
Minimum Humidity 57    
Precipitation  
Precipitation 0.00 in - - ()
Sea Level Pressure  
Sea Level Pressure 29.89 in    
Wind  
Wind Speed 2 mph (SE)    
Max Wind Speed 10 mph    
Max Gust Speed -    
Visibility 6 miles    
Events Fog    
Averages and records for this station are not official NWS values.
T = Trace of Precipitation, MM = Missing Value Source: NWS Daily Summary

Daily Weather History Graph

Daily Weather History Graph

Search for Another Location

Airport or City:

Trip Planner

Search our weather history database for the weather conditions in past years. The results will help you decide how hot, cold, wet, or windy it might be!

Date:

Astronomy

May. 17, 2013 Rise Set
Actual Time 6:12 AM CDT 8:26 PM CDT
Civil Twilight 5:43 AM CDT 8:55 PM CDT
Nautical Twilight 5:07 AM CDT 9:31 PM CDT
Astronomical Twilight 4:28 AM CDT 10:11 PM CDT
Moon 12:42 PM CDT (5/17) 1:23 AM CDT (5/17)
Length of Visible Light 15h 12m
Length of Day
14h 13m
Waxing Crescent, 45% of the Moon is Illuminated
May 17
Waxing Crescent
May 17
First Quarter
May 24
Full
May 31
Last Quarter
Jun 8
New

Hourly Weather History & Observations

Time (CDT) Temp. Dew Point Humidity Pressure Visibility Wind Dir Wind Speed Gust Speed Precip Events Conditions
12:15 AM 60.8 °F 59.0 °F 94% 29.88 in 10.0 mi East 4.6 mph - N/A   Clear
12:35 AM 60.8 °F 59.0 °F 94% 29.88 in 10.0 mi Calm Calm - N/A   Clear
12:55 AM 60.8 °F 59.0 °F 94% 29.88 in 7.0 mi Calm Calm - N/A   Clear
1:15 AM 59.0 °F 59.0 °F 100% 29.87 in 5.0 mi Calm Calm - N/A   Clear
1:35 AM 59.0 °F 57.2 °F 94% 29.87 in 7.0 mi Calm Calm - N/A   Clear
1:55 AM 60.8 °F 59.0 °F 94% 29.87 in 2.0 mi Calm Calm - N/A   Clear
2:15 AM 59.0 °F 59.0 °F 100% 29.87 in 1.2 mi Calm Calm - N/A   Mist
2:35 AM 59.0 °F 59.0 °F 100% 29.86 in 0.2 mi Calm Calm - N/A Fog Fog
2:55 AM 57.2 °F 55.4 °F 94% 29.86 in 0.2 mi Calm Calm - N/A Fog Fog
3:15 AM 57.2 °F 55.4 °F 94% 29.86 in 0.2 mi Calm Calm - N/A Fog Fog
3:35 AM 57.2 °F 55.4 °F 94% 29.86 in 0.2 mi Calm Calm - N/A Fog Fog
3:55 AM 57.2 °F 55.4 °F 94% 29.86 in 0.2 mi Calm Calm - N/A Fog Fog
4:15 AM 57.2 °F 55.4 °F 94% 29.86 in 0.2 mi Calm Calm - N/A Fog Fog
4:35 AM 59.0 °F 57.2 °F 94% 29.87 in 0.5 mi Calm Calm - N/A Fog Fog
4:55 AM 57.2 °F 57.2 °F 100% 29.87 in 0.8 mi Calm Calm - N/A   Overcast
5:15 AM 57.2 °F 57.2 °F 100% 29.87 in 0.2 mi Calm Calm - N/A Fog Fog
5:35 AM 57.2 °F 57.2 °F 100% 29.87 in 0.5 mi Calm Calm - N/A Fog Fog
5:55 AM 59.0 °F 59.0 °F 100% 29.88 in 0.2 mi Calm Calm - N/A Fog Fog
6:15 AM 59.0 °F 59.0 °F 100% 29.88 in 0.2 mi Calm Calm - N/A Fog Fog
6:35 AM 59.0 °F 59.0 °F 100% 29.89 in 0.2 mi Calm Calm - N/A Fog Fog
7:15 AM 60.8 °F 59.0 °F 94% 29.90 in 0.2 mi Calm Calm - N/A Fog Fog
7:35 AM 60.8 °F 60.8 °F 100% 29.91 in 0.2 mi Calm Calm - N/A Fog Fog
7:55 AM 60.8 °F 60.8 °F 100% 29.92 in 0.2 mi Calm Calm - N/A Fog Fog
8:15 AM 60.8 °F 60.8 °F 100% 29.92 in 0.2 mi Calm Calm - N/A Fog Fog
8:35 AM 60.8 °F 60.8 °F 100% 29.93 in 0.2 mi Calm Calm - N/A Fog Fog
8:55 AM 62.6 °F 60.8 °F 94% 29.93 in 0.2 mi Calm Calm - N/A Fog Fog
9:15 AM 62.6 °F 62.6 °F 100% 29.94 in 0.8 mi Calm Calm - N/A   Overcast
9:35 AM 62.6 °F 62.6 °F 100% 29.94 in 2.5 mi Calm Calm - N/A   Overcast
9:55 AM 62.6 °F 62.6 °F 100% 29.93 in 4.0 mi Calm Calm - N/A   Overcast
10:15 AM 62.6 °F 62.6 °F 100% 29.93 in 5.0 mi East 3.5 mph - N/A   Overcast
10:35 AM 64.4 °F 62.6 °F 94% 29.93 in 10.0 mi ESE 3.5 mph - N/A   Overcast
10:55 AM 64.4 °F 62.6 °F 94% 29.93 in 10.0 mi East 3.5 mph - N/A   Overcast
11:15 AM 64.4 °F 62.6 °F 94% 29.93 in 10.0 mi SE 5.8 mph - N/A   Overcast
11:35 AM 68.0 °F 62.6 °F 83% 29.93 in 7.0 mi ESE 3.5 mph - N/A   Overcast
11:55 AM 68.0 °F 62.6 °F 83% 29.93 in 7.0 mi Calm Calm - N/A   Overcast
12:15 PM 69.8 °F 64.4 °F 83% 29.93 in 10.0 mi SE 3.5 mph - N/A   Mostly Cloudy
12:35 PM 71.6 °F 62.6 °F 73% 29.92 in 10.0 mi SE 3.5 mph - N/A   Mostly Cloudy
12:55 PM 71.6 °F 62.6 °F 73% 29.92 in 10.0 mi SE 3.5 mph - N/A   Mostly Cloudy
1:15 PM 73.4 °F 62.6 °F 69% 29.92 in 10.0 mi SSE 4.6 mph - N/A   Scattered Clouds
1:35 PM 73.4 °F 62.6 °F 69% 29.91 in 10.0 mi SE 5.8 mph - N/A   Scattered Clouds
2:15 PM 73.4 °F 62.6 °F 69% 29.90 in 10.0 mi SSE 4.6 mph - N/A   Scattered Clouds
2:35 PM 75.2 °F 62.6 °F 65% 29.90 in 10.0 mi Calm Calm - N/A   Scattered Clouds
2:55 PM 77.0 °F 62.6 °F 61% 29.90 in 10.0 mi SE 4.6 mph - N/A   Scattered Clouds
3:15 PM 75.2 °F 62.6 °F 65% 29.90 in 10.0 mi ESE 4.6 mph - N/A   Scattered Clouds
3:35 PM 78.8 °F 64.4 °F 61% 29.89 in 10.0 mi SE 5.8 mph - N/A   Scattered Clouds
3:55 PM 77.0 °F 62.6 °F 61% 29.89 in 10.0 mi SE 4.6 mph - N/A   Clear
4:15 PM 78.8 °F 64.4 °F 61% 29.88 in 10.0 mi SE 5.8 mph - N/A   Mostly Cloudy
4:35 PM 78.8 °F 64.4 °F 61% 29.87 in 10.0 mi ESE 6.9 mph - N/A   Overcast
4:55 PM 77.0 °F 62.6 °F 61% 29.87 in 10.0 mi ESE 4.6 mph - N/A   Scattered Clouds
5:15 PM 77.0 °F 62.6 °F 61% 29.87 in 10.0 mi ESE 9.2 mph - N/A   Mostly Cloudy
5:35 PM 78.8 °F 62.6 °F 57% 29.87 in 10.0 mi South 4.6 mph - N/A   Scattered Clouds
5:55 PM 78.8 °F 62.6 °F 57% 29.87 in 10.0 mi SE 8.1 mph - N/A   Scattered Clouds
6:15 PM 78.8 °F 62.6 °F 57% 29.87 in 10.0 mi South 6.9 mph - N/A   Scattered Clouds
6:35 PM 78.8 °F 62.6 °F 57% 29.87 in 10.0 mi ESE 10.4 mph - N/A   Scattered Clouds
6:55 PM 77.0 °F 62.6 °F 61% 29.87 in 10.0 mi SSE 6.9 mph - N/A   Scattered Clouds
7:15 PM 77.0 °F 62.6 °F 61% 29.87 in 10.0 mi SSE 6.9 mph - N/A   Clear
7:35 PM 75.2 °F 62.6 °F 65% 29.87 in 10.0 mi SSE 5.8 mph - N/A   Clear
7:55 PM 73.4 °F 64.4 °F 73% 29.87 in 10.0 mi SE 4.6 mph - N/A   Clear
8:15 PM 73.4 °F 64.4 °F 73% 29.87 in 10.0 mi SE 4.6 mph - N/A   Clear
8:35 PM 71.6 °F 62.6 °F 73% 29.87 in 10.0 mi SE 3.5 mph - N/A   Mostly Cloudy
8:55 PM 71.6 °F 62.6 °F 73% 29.87 in 10.0 mi SE 3.5 mph - N/A   Scattered Clouds
9:15 PM 69.8 °F 62.6 °F 78% 29.88 in 10.0 mi SE 4.6 mph - N/A   Clear
9:35 PM 69.8 °F 62.6 °F 78% 29.88 in 10.0 mi ESE 5.8 mph - N/A   Clear
9:55 PM 69.8 °F 62.6 °F 78% 29.89 in 10.0 mi ESE 5.8 mph - N/A   Clear
10:15 PM 68.0 °F 62.6 °F 83% 29.90 in 10.0 mi SE 3.5 mph - N/A   Clear
10:35 PM 68.0 °F 62.6 °F 83% 29.90 in 10.0 mi SE 4.6 mph - N/A   Clear
10:55 PM 68.0 °F 62.6 °F 83% 29.90 in 10.0 mi SE 3.5 mph - N/A   Clear
11:15 PM 68.0 °F 62.6 °F 83% 29.91 in 10.0 mi Calm Calm - N/A   Scattered Clouds
11:35 PM 68.0 °F 62.6 °F 83% 29.90 in 10.0 mi Calm Calm - N/A   Scattered Clouds
11:55 PM 66.2 °F 62.6 °F 88% 29.90 in 10.0 mi SE 3.5 mph - N/A   Scattered Clouds